DLH2447 KDEN-KLAX

Flight info

Callsign DLH2447
Flight time 2h 24m
Altitude 40000
Route BAYLR6 TEHRU JASSE Q90 DNERO ANJLL4
Aircraft A359/H-SDE2E3GHIJ3J4J5LM1ORWXY/LB1D1

Departure

Time 2026-05-04 20:00
Airport Denver International Airport (KDEN)

Arrival

Time 2026-05-04 22:24
Airport Los Angeles International Airport (KLAX)
Time Latitude Longitude Altitude Speed Heading
2026-05-04 19:29 39.85793 -104.67853 5387 ft 0 kts 360°
2026-05-04 19:45 39.85793 -104.68032 5390 ft 0 kts 360°
2026-05-04 19:45 39.85793 -104.67951 5388 ft 0 kts 360°
2026-05-04 19:47 39.85782 -104.67951 5384 ft 2 kts 359°
2026-05-04 19:48 39.85765 -104.67951 5383 ft 2 kts 360°
2026-05-04 19:48 39.85760 -104.67951 5386 ft 1 kts 360°
2026-05-04 19:48 39.85669 -104.67956 5387 ft 0 kts 269°
2026-05-04 19:48 39.85670 -104.67970 5387 ft 6 kts 274°
2026-05-04 19:49 39.85671 -104.68130 5386 ft 27 kts 272°
2026-05-04 19:49 39.85684 -104.68380 5387 ft 28 kts 270°
2026-05-04 19:49 39.85614 -104.68523 5374 ft 15 kts 180°
2026-05-04 19:49 39.85484 -104.68518 5376 ft 24 kts 180°
2026-05-04 19:50 39.85291 -104.68520 5377 ft 28 kts 180°
2026-05-04 19:50 39.85205 -104.68534 5376 ft 0 kts 216°
2026-05-04 19:50 39.85165 -104.68616 5372 ft 0 kts 261°
2026-05-04 19:50 39.85207 -104.68658 5372 ft 5 kts 267°
2026-05-04 19:51 39.85195 -104.68854 5365 ft 33 kts 254°
2026-05-04 19:51 39.85128 -104.68911 5361 ft 8 kts 180°
2026-05-04 19:51 39.85108 -104.68910 5362 ft 0 kts 179°
2026-05-04 19:53 39.85095 -104.68901 5363 ft 10 kts 147°
2026-05-04 19:54 39.85060 -104.68777 5368 ft 0 kts 90°
2026-05-04 19:54 39.85065 -104.68761 5366 ft 10 kts 62°
2026-05-04 19:54 39.85186 -104.68879 5362 ft 30 kts 288°
2026-05-04 19:54 39.85198 -104.69141 5355 ft 30 kts 271°
2026-05-04 19:55 39.85204 -104.69415 5346 ft 30 kts 271°
2026-05-04 19:55 39.85210 -104.69591 5358 ft 0 kts 283°
2026-05-04 19:56 39.85237 -104.69645 5356 ft 18 kts 325°
2026-05-04 19:56 39.85314 -104.69659 5359 ft 0 kts
2026-05-04 19:59 39.85329 -104.69658 5357 ft 15 kts
2026-05-04 19:59 39.85672 -104.69655 5368 ft 84 kts
2026-05-04 19:59 39.86475 -104.69646 5366 ft 144 kts 359°
2026-05-04 20:00 39.87622 -104.69630 5637 ft 176 kts 358°
2026-05-04 20:00 39.88887 -104.69742 6156 ft 190 kts 341°
2026-05-04 20:00 39.90021 -104.70667 6577 ft 200 kts 309°
2026-05-04 20:00 39.90490 -104.72438 6777 ft 227 kts 267°
2026-05-04 20:01 39.89883 -104.74449 7081 ft 257 kts 232°
2026-05-04 20:01 39.88564 -104.76140 7734 ft 271 kts 224°
2026-05-04 20:01 39.87156 -104.77812 8663 ft 276 kts 225°
2026-05-04 20:01 39.85756 -104.79553 9433 ft 280 kts 226°
2026-05-04 20:02 39.84354 -104.81353 9848 ft 286 kts 227°
2026-05-04 20:02 39.82951 -104.83190 9966 ft 286 kts 227°
2026-05-04 20:02 39.81553 -104.85042 9965 ft 287 kts 227°
2026-05-04 20:02 39.80158 -104.86898 10024 ft 287 kts 228°
2026-05-04 20:03 39.78746 -104.88792 10236 ft 299 kts 228°
2026-05-04 20:03 39.77487 -104.91055 10496 ft 322 kts 246°
2026-05-04 20:03 39.76719 -104.93890 10895 ft 342 kts 254°
2026-05-04 20:03 39.76067 -104.96919 11528 ft 353 kts 255°
2026-05-04 20:04 39.75405 -105.00015 12346 ft 358 kts 255°
2026-05-04 20:04 39.74659 -105.03103 13324 ft 359 kts 250°
2026-05-04 20:04 39.73725 -105.06115 14201 ft 362 kts 248°
2026-05-04 20:04 39.72735 -105.09142 14993 ft 367 kts 247°
2026-05-04 20:05 39.71741 -105.12168 15844 ft 369 kts 247°
2026-05-04 20:05 39.70728 -105.15253 16646 ft 373 kts 247°
2026-05-04 20:05 39.69704 -105.18372 17406 ft 377 kts 247°
2026-05-04 20:05 39.68670 -105.21520 18172 ft 381 kts 247°
2026-05-04 20:06 39.67628 -105.24691 18855 ft 385 kts 247°
2026-05-04 20:06 39.66571 -105.27909 19626 ft 387 kts 248°
2026-05-04 20:06 39.65517 -105.31125 20396 ft 389 kts 248°
2026-05-04 20:06 39.64444 -105.34369 21174 ft 392 kts 248°
2026-05-04 20:07 39.63368 -105.37623 21962 ft 395 kts 248°
2026-05-04 20:07 39.62286 -105.40913 22735 ft 397 kts 248°
2026-05-04 20:07 39.61196 -105.44214 23487 ft 400 kts 248°
2026-05-04 20:07 39.60094 -105.47542 24147 ft 402 kts 248°
2026-05-04 20:08 39.58992 -105.50882 24871 ft 404 kts 248°
2026-05-04 20:08 39.57878 -105.54231 25555 ft 405 kts 248°
2026-05-04 20:08 39.56753 -105.57592 26231 ft 407 kts 249°
2026-05-04 20:08 39.55639 -105.60923 26887 ft 408 kts 249°
2026-05-04 20:09 39.54534 -105.64363 27575 ft 409 kts 252°
2026-05-04 20:09 39.53586 -105.67834 28385 ft 408 kts 253°
2026-05-04 20:09 39.52659 -105.71315 29105 ft 409 kts 253°
2026-05-04 20:09 39.51717 -105.74801 29702 ft 412 kts 253°
2026-05-04 20:10 39.50757 -105.78309 30184 ft 415 kts 253°
2026-05-04 20:10 39.49785 -105.81834 30720 ft 416 kts 253°
2026-05-04 20:10 39.48808 -105.85362 31250 ft 416 kts 253°
2026-05-04 20:10 39.47828 -105.88890 31742 ft 417 kts 253°
2026-05-04 20:11 39.46842 -105.92431 32211 ft 419 kts 253°
2026-05-04 20:11 39.45854 -105.95969 32691 ft 419 kts 253°
2026-05-04 20:11 39.44860 -105.99521 33100 ft 421 kts 253°
2026-05-04 20:11 39.43866 -106.03069 33755 ft 416 kts 253°
2026-05-04 20:12 39.42888 -106.06546 34544 ft 406 kts 253°
2026-05-04 20:12 39.41932 -106.09945 35202 ft 399 kts 253°
2026-05-04 20:12 39.40991 -106.13294 35743 ft 394 kts 253°
2026-05-04 20:12 39.40058 -106.16606 36287 ft 390 kts 253°
2026-05-04 20:13 39.39136 -106.19887 36814 ft 386 kts 253°
2026-05-04 20:13 39.38224 -106.23126 37343 ft 382 kts 253°
2026-05-04 20:13 39.37316 -106.26329 38066 ft 376 kts 253°
2026-05-04 20:13 39.36425 -106.29475 38601 ft 372 kts 253°
2026-05-04 20:14 39.35537 -106.32610 38944 ft 371 kts 253°
2026-05-04 20:14 39.34643 -106.35764 39099 ft 373 kts 253°
2026-05-04 20:14 39.33751 -106.38901 39418 ft 372 kts 253°
2026-05-04 20:14 39.32857 -106.42039 39628 ft 373 kts 252°
2026-05-04 20:15 39.31969 -106.45151 39714 ft 375 kts 253°
2026-05-04 20:15 39.31056 -106.48365 39924 ft 375 kts 253°
2026-05-04 20:15 39.30156 -106.51522 40121 ft 376 kts 253°
2026-05-04 20:16 39.28328 -106.57916 39994 ft 381 kts 253°
2026-05-04 20:16 39.26485 -106.64318 39950 ft 380 kts 253°
2026-05-04 20:17 39.24608 -106.70526 39992 ft 372 kts 249°
2026-05-04 20:17 39.21904 -106.76257 40023 ft 378 kts 241°
2026-05-04 20:18 39.18775 -106.81726 40017 ft 379 kts 240°
2026-05-04 20:18 39.15593 -106.87154 40011 ft 379 kts 240°
2026-05-04 20:18 39.14008 -106.89862 39850 ft 378 kts 240°
2026-05-04 20:19 39.12435 -106.92569 39834 ft 378 kts 240°
2026-05-04 20:19 39.09283 -106.98015 39847 ft 381 kts 240°
2026-05-04 20:20 39.06098 -107.03501 39835 ft 382 kts 240°
2026-05-04 20:20 39.02921 -107.08945 39827 ft 379 kts 240°
2026-05-04 20:21 38.99764 -107.14358 39840 ft 378 kts 239°
2026-05-04 20:21 38.95023 -107.22464 39819 ft 377 kts 239°
2026-05-04 20:22 38.91870 -107.27842 39839 ft 376 kts 240°
2026-05-04 20:22 38.88742 -107.33194 39836 ft 375 kts 240°
2026-05-04 20:23 38.85607 -107.38556 39830 ft 378 kts 240°
2026-05-04 20:23 38.82449 -107.43927 39828 ft 375 kts 239°
2026-05-04 20:24 38.79309 -107.49246 39818 ft 374 kts 240°
2026-05-04 20:24 38.76702 -107.53672 39827 ft 374 kts 239°
2026-05-04 20:25 38.73559 -107.59014 39815 ft 375 kts 239°
2026-05-04 20:25 38.70405 -107.64332 39806 ft 374 kts 239°
2026-05-04 20:26 38.67254 -107.69637 39807 ft 374 kts 239°
2026-05-04 20:26 38.64099 -107.74950 39780 ft 377 kts 239°
2026-05-04 20:27 38.60911 -107.80314 39797 ft 380 kts 239°
2026-05-04 20:27 38.59310 -107.83003 39963 ft 380 kts 239°
2026-05-04 20:27 38.57706 -107.85697 39970 ft 380 kts 239°
2026-05-04 20:28 38.54498 -107.91070 39971 ft 380 kts 239°
2026-05-04 20:28 38.51286 -107.96442 39971 ft 381 kts 239°
2026-05-04 20:29 38.48072 -108.01810 39962 ft 380 kts 239°
2026-05-04 20:29 38.44858 -108.07168 39931 ft 380 kts 239°
2026-05-04 20:30 38.41640 -108.12526 39900 ft 380 kts 239°
2026-05-04 20:30 38.38422 -108.17873 39872 ft 380 kts 239°
2026-05-04 20:31 38.35203 -108.23214 39802 ft 381 kts 239°
2026-05-04 20:31 38.31981 -108.28559 39806 ft 384 kts 239°
2026-05-04 20:32 38.28722 -108.33950 39815 ft 384 kts 239°
2026-05-04 20:32 38.25462 -108.39329 39817 ft 384 kts 239°
2026-05-04 20:33 38.22199 -108.44703 39809 ft 384 kts 238°
2026-05-04 20:33 38.18930 -108.50084 39812 ft 383 kts 238°
2026-05-04 20:34 38.15669 -108.55444 39817 ft 383 kts 238°
2026-05-04 20:34 38.12405 -108.60798 39813 ft 383 kts 238°
2026-05-04 20:35 38.09137 -108.66151 39809 ft 383 kts 238°
2026-05-04 20:35 38.05868 -108.71495 39793 ft 383 kts 238°
2026-05-04 20:36 38.02601 -108.76824 39814 ft 382 kts 239°
2026-05-04 20:36 37.99347 -108.82128 39809 ft 381 kts 238°
2026-05-04 20:37 37.96094 -108.87412 39823 ft 380 kts 238°
2026-05-04 20:37 37.92842 -108.92691 39830 ft 380 kts 238°
2026-05-04 20:38 37.89590 -108.97975 39833 ft 380 kts 238°
2026-05-04 20:38 37.86335 -109.03251 39835 ft 380 kts 238°
2026-05-04 20:39 37.83077 -109.08518 39828 ft 380 kts 238°
2026-05-04 20:39 37.79815 -109.13783 39833 ft 380 kts 238°
2026-05-04 20:40 37.76556 -109.19034 39874 ft 379 kts 238°
2026-05-04 20:40 37.73302 -109.24269 39901 ft 379 kts 238°
2026-05-04 20:41 37.70038 -109.29514 39940 ft 380 kts 238°
2026-05-04 20:41 37.66791 -109.34721 39967 ft 380 kts 238°
2026-05-04 20:42 37.63523 -109.39952 39999 ft 380 kts 238°
2026-05-04 20:42 37.60251 -109.45182 39999 ft 380 kts 238°
2026-05-04 20:43 37.56973 -109.50417 39999 ft 380 kts 238°
2026-05-04 20:43 37.53695 -109.55639 39999 ft 380 kts 238°
2026-05-04 20:44 37.50421 -109.60850 39974 ft 380 kts 238°
2026-05-04 20:44 37.47140 -109.66061 39936 ft 380 kts 238°
2026-05-04 20:45 37.43858 -109.71266 39780 ft 380 kts 238°
2026-05-04 20:45 37.40572 -109.76465 39803 ft 379 kts 237°
2026-05-04 20:46 37.37294 -109.81647 39803 ft 378 kts 237°
2026-05-04 20:46 37.34018 -109.86823 39804 ft 378 kts 237°
2026-05-04 20:47 37.30717 -109.92038 39802 ft 378 kts 237°
2026-05-04 20:47 37.27455 -109.97170 39794 ft 379 kts 237°
2026-05-04 20:48 37.24163 -110.02337 39796 ft 379 kts 237°
2026-05-04 20:48 37.20874 -110.07495 39792 ft 378 kts 237°
2026-05-04 20:49 37.17580 -110.12652 39794 ft 378 kts 237°
2026-05-04 20:49 37.14293 -110.17795 39799 ft 378 kts 237°
2026-05-04 20:50 37.10997 -110.22939 39786 ft 378 kts 237°
2026-05-04 20:50 37.07702 -110.28075 39795 ft 378 kts 237°
2026-05-04 20:51 37.04407 -110.33205 39797 ft 378 kts 237°
2026-05-04 20:51 37.01108 -110.38335 39791 ft 378 kts 237°
2026-05-04 20:52 36.97803 -110.43464 39799 ft 378 kts 237°
2026-05-04 20:52 36.94497 -110.48589 39807 ft 378 kts 236°
2026-05-04 20:53 36.91193 -110.53701 39814 ft 379 kts 236°
2026-05-04 20:53 36.87878 -110.58822 39819 ft 379 kts 236°
2026-05-04 20:54 36.84561 -110.63939 39817 ft 379 kts 236°
2026-05-04 20:54 36.81241 -110.69051 39818 ft 379 kts 236°
2026-05-04 20:55 36.77914 -110.74169 39818 ft 381 kts 236°
2026-05-04 20:55 36.74569 -110.79305 39813 ft 382 kts 236°
2026-05-04 20:56 36.71215 -110.84448 39808 ft 381 kts 236°
2026-05-04 20:56 36.67869 -110.89566 39801 ft 381 kts 236°
2026-05-04 20:57 36.64522 -110.94681 39802 ft 381 kts 236°
2026-05-04 20:57 36.61169 -110.99798 39803 ft 381 kts 236°
2026-05-04 20:58 36.57822 -111.04899 39798 ft 381 kts 236°
2026-05-04 20:58 36.54469 -111.10001 39803 ft 381 kts 236°
2026-05-04 20:59 36.51116 -111.15097 39806 ft 381 kts 235°
2026-05-04 20:59 36.47763 -111.20182 39802 ft 380 kts 235°
2026-05-04 21:00 36.44409 -111.25259 39806 ft 380 kts 235°
2026-05-04 21:00 36.41057 -111.30330 39796 ft 380 kts 235°
2026-05-04 21:01 36.37729 -111.35355 39796 ft 380 kts 235°
2026-05-04 21:01 36.34374 -111.40414 39790 ft 380 kts 235°
2026-05-04 21:02 36.31013 -111.45476 39778 ft 380 kts 235°
2026-05-04 21:02 36.27649 -111.50532 39777 ft 380 kts 235°
2026-05-04 21:03 36.24287 -111.55579 39785 ft 380 kts 235°
2026-05-04 21:03 36.20922 -111.60622 39782 ft 380 kts 235°
2026-05-04 21:04 36.17555 -111.65662 39783 ft 380 kts 235°
2026-05-04 21:04 36.14187 -111.70695 39786 ft 380 kts 234°
2026-05-04 21:05 36.10810 -111.75728 39791 ft 380 kts 234°
2026-05-04 21:05 36.07634 -111.80915 39862 ft 377 kts 240°
2026-05-04 21:06 36.05346 -111.86700 39909 ft 375 kts 248°
2026-05-04 21:06 36.03412 -111.92676 39954 ft 375 kts 248°
2026-05-04 21:07 36.01535 -111.98665 40005 ft 373 kts 248°
2026-05-04 21:07 35.99963 -112.03630 40017 ft 372 kts 248°
2026-05-04 21:08 35.98061 -112.09574 40057 ft 373 kts 248°
2026-05-04 21:08 35.96134 -112.15542 40051 ft 374 kts 248°
2026-05-04 21:09 35.94206 -112.21510 40047 ft 374 kts 248°
2026-05-04 21:09 35.92283 -112.27465 40032 ft 374 kts 248°
2026-05-04 21:10 35.90355 -112.33426 39998 ft 374 kts 248°
2026-05-04 21:10 35.88427 -112.39373 39952 ft 374 kts 248°
2026-05-04 21:11 35.86492 -112.45327 39912 ft 374 kts 248°
2026-05-04 21:11 35.84557 -112.51274 39820 ft 374 kts 248°
2026-05-04 21:12 35.82618 -112.57218 39821 ft 374 kts 248°
2026-05-04 21:12 35.80675 -112.63162 39825 ft 374 kts 248°
2026-05-04 21:13 35.78731 -112.69101 39824 ft 374 kts 248°
2026-05-04 21:13 35.76784 -112.75034 39828 ft 374 kts 248°
2026-05-04 21:14 35.74833 -112.80969 39834 ft 374 kts 247°
2026-05-04 21:14 35.72877 -112.86905 39832 ft 374 kts 247°
2026-05-04 21:15 35.70921 -112.92831 39831 ft 374 kts 247°
2026-05-04 21:15 35.68959 -112.98763 39829 ft 374 kts 247°
2026-05-04 21:16 35.66994 -113.04693 39827 ft 374 kts 247°
2026-05-04 21:16 35.65043 -113.10563 39832 ft 373 kts 247°
2026-05-04 21:17 35.63081 -113.16460 39823 ft 372 kts 246°
2026-05-04 21:17 35.61107 -113.22388 39826 ft 372 kts 246°
2026-05-04 21:18 35.59145 -113.28272 39812 ft 372 kts 246°
2026-05-04 21:18 35.57175 -113.34155 39813 ft 372 kts 246°
2026-05-04 21:19 35.55216 -113.39993 39802 ft 372 kts 246°
2026-05-04 21:19 35.53244 -113.45864 39806 ft 372 kts 246°
2026-05-04 21:20 35.51266 -113.51743 39798 ft 373 kts 246°
2026-05-04 21:20 35.49283 -113.57620 39796 ft 373 kts 246°
2026-05-04 21:21 35.47300 -113.63488 39808 ft 373 kts 246°
2026-05-04 21:21 35.45311 -113.69362 39853 ft 373 kts 246°
2026-05-04 21:22 35.43323 -113.75229 39901 ft 372 kts 246°
2026-05-04 21:22 35.41333 -113.81088 39901 ft 372 kts 245°
2026-05-04 21:23 35.39327 -113.86972 39926 ft 372 kts 245°
2026-05-04 21:23 35.37334 -113.92813 39943 ft 371 kts 245°
2026-05-04 21:24 35.35338 -113.98650 39962 ft 372 kts 245°
2026-05-04 21:24 35.33337 -114.04488 39943 ft 372 kts 245°
2026-05-04 21:25 35.31335 -114.10322 39933 ft 372 kts 245°
2026-05-04 21:25 35.29319 -114.16176 39910 ft 373 kts 245°
2026-05-04 21:26 35.27307 -114.22026 39885 ft 373 kts 245°
2026-05-04 21:26 35.25290 -114.27877 39861 ft 373 kts 245°
2026-05-04 21:27 35.23272 -114.33717 39832 ft 373 kts 245°
2026-05-04 21:27 35.21261 -114.39521 39836 ft 373 kts 245°
2026-05-04 21:28 35.19221 -114.45407 39821 ft 374 kts 245°
2026-05-04 21:28 35.17180 -114.51274 39821 ft 375 kts 244°
2026-05-04 21:29 35.15151 -114.57098 39878 ft 375 kts 244°
2026-05-04 21:29 35.13104 -114.62966 39877 ft 375 kts 244°
2026-05-04 21:30 35.11068 -114.68829 39873 ft 375 kts 245°
2026-05-04 21:30 35.09032 -114.74684 39869 ft 375 kts 244°
2026-05-04 21:31 35.05968 -114.83474 39835 ft 374 kts 244°
2026-05-04 21:32 35.03931 -114.89309 39847 ft 373 kts 244°
2026-05-04 21:32 35.01727 -114.94911 39852 ft 352 kts 240°
2026-05-04 21:32 35.00571 -114.97479 39852 ft 337 kts 240°
2026-05-04 21:33 34.99475 -114.99937 39850 ft 322 kts 240°
2026-05-04 21:33 34.98440 -115.02286 39860 ft 308 kts 240°
2026-05-04 21:33 34.97452 -115.04539 39856 ft 293 kts 240°
2026-05-04 21:33 34.96519 -115.06679 39851 ft 278 kts 240°
2026-05-04 21:34 34.95636 -115.08705 39850 ft 263 kts 240°
2026-05-04 21:34 34.94802 -115.10621 39851 ft 248 kts 240°
2026-05-04 21:34 34.94023 -115.12414 39850 ft 231 kts 240°
2026-05-04 21:34 34.93297 -115.14083 39846 ft 214 kts 240°
2026-05-04 21:35 34.92625 -115.15629 39844 ft 203 kts 240°
2026-05-04 21:35 34.91961 -115.17150 39855 ft 203 kts 239°
2026-05-04 21:35 34.91297 -115.18670 39852 ft 203 kts 240°
2026-05-04 21:35 34.90622 -115.20215 39689 ft 212 kts 240°
2026-05-04 21:36 34.89912 -115.21839 39466 ft 222 kts 240°
2026-05-04 21:36 34.89169 -115.23540 39247 ft 234 kts 240°
2026-05-04 21:36 34.88373 -115.25359 38581 ft 252 kts 240°
2026-05-04 21:36 34.87509 -115.27334 38014 ft 275 kts 240°
2026-05-04 21:37 34.86588 -115.29443 37835 ft 287 kts 240°
2026-05-04 21:37 34.85638 -115.31619 37842 ft 295 kts 240°
2026-05-04 21:37 34.84660 -115.33858 37859 ft 304 kts 239°
2026-05-04 21:37 34.83656 -115.36155 37671 ft 308 kts 239°
2026-05-04 21:38 34.82646 -115.38465 36903 ft 312 kts 239°
2026-05-04 21:38 34.81614 -115.40820 36038 ft 319 kts 239°
2026-05-04 21:38 34.80563 -115.43217 35218 ft 325 kts 239°
2026-05-04 21:38 34.79481 -115.45681 34463 ft 338 kts 238°
2026-05-04 21:39 34.78386 -115.48316 34007 ft 361 kts 241°
2026-05-04 21:39 34.77361 -115.51162 33848 ft 372 kts 242°
2026-05-04 21:39 34.76328 -115.54064 33845 ft 374 kts 242°
2026-05-04 21:40 34.74240 -115.59839 33859 ft 372 kts 242°
2026-05-04 21:40 34.72132 -115.65591 33858 ft 372 kts 241°
2026-05-04 21:41 34.70022 -115.71314 33850 ft 371 kts 241°
2026-05-04 21:41 34.67911 -115.77021 33848 ft 370 kts 241°
2026-05-04 21:42 34.65799 -115.82724 33851 ft 370 kts 241°
2026-05-04 21:42 34.63687 -115.88421 33852 ft 370 kts 241°
2026-05-04 21:43 34.61598 -115.94099 33367 ft 364 kts 241°
2026-05-04 21:43 34.60560 -115.96913 32384 ft 367 kts 241°
2026-05-04 21:43 34.59504 -115.99760 31268 ft 374 kts 242°
2026-05-04 21:43 34.58429 -116.02661 30207 ft 380 kts 242°
2026-05-04 21:44 34.57340 -116.05605 29375 ft 387 kts 242°
2026-05-04 21:44 34.56226 -116.08614 28927 ft 393 kts 243°
2026-05-04 21:44 34.55105 -116.11647 28846 ft 395 kts 243°
2026-05-04 21:45 34.52857 -116.17718 28832 ft 393 kts 242°
2026-05-04 21:45 34.50615 -116.23754 28856 ft 392 kts 242°
2026-05-04 21:46 34.48377 -116.29773 28864 ft 391 kts 242°
2026-05-04 21:46 34.46143 -116.35768 28864 ft 391 kts 242°
2026-05-04 21:47 34.43918 -116.41729 28446 ft 381 kts 242°
2026-05-04 21:47 34.42829 -116.44655 27365 ft 382 kts 243°
2026-05-04 21:47 34.42100 -116.46603 26593 ft 386 kts 243°
2026-05-04 21:47 34.40588 -116.50525 25761 ft 379 kts 242°
2026-05-04 21:48 34.39810 -116.52397 25558 ft 371 kts 241°
2026-05-04 21:48 34.38666 -116.55128 25237 ft 358 kts 241°
2026-05-04 21:48 34.37561 -116.57777 24960 ft 347 kts 241°
2026-05-04 21:48 34.36495 -116.60343 24702 ft 335 kts 242°
2026-05-04 21:49 34.35464 -116.62831 24341 ft 328 kts 242°
2026-05-04 21:49 34.34444 -116.65291 23820 ft 325 kts 242°
2026-05-04 21:49 34.33435 -116.67729 23241 ft 323 kts 242°
2026-05-04 21:49 34.32439 -116.70176 22518 ft 324 kts 243°
2026-05-04 21:50 34.31458 -116.72624 21783 ft 323 kts 244°
2026-05-04 21:50 34.30472 -116.75086 20978 ft 327 kts 243°
2026-05-04 21:50 34.29479 -116.77554 20452 ft 324 kts 243°
2026-05-04 21:50 34.28499 -116.79990 19854 ft 322 kts 243°
2026-05-04 21:51 34.27519 -116.82424 19232 ft 322 kts 243°
2026-05-04 21:51 34.26538 -116.84862 18660 ft 322 kts 243°
2026-05-04 21:51 34.25558 -116.87289 18089 ft 322 kts 243°
2026-05-04 21:51 34.24576 -116.89726 17383 ft 323 kts 243°
2026-05-04 21:52 34.23589 -116.92167 16728 ft 323 kts 243°
2026-05-04 21:52 34.22605 -116.94601 16171 ft 321 kts 243°
2026-05-04 21:52 34.21630 -116.97017 15574 ft 320 kts 243°
2026-05-04 21:52 34.20788 -116.99503 15012 ft 320 kts 249°
2026-05-04 21:53 34.20082 -117.02054 14450 ft 320 kts 250°
2026-05-04 21:53 34.19396 -117.04604 14045 ft 318 kts 250°
2026-05-04 21:53 34.18712 -117.07149 13887 ft 318 kts 251°
2026-05-04 21:53 34.18027 -117.09689 13884 ft 318 kts 250°
2026-05-04 21:54 34.17342 -117.12226 13910 ft 318 kts 250°
2026-05-04 21:54 34.16655 -117.14766 13897 ft 318 kts 250°
2026-05-04 21:54 34.15972 -117.17298 13923 ft 317 kts 250°
2026-05-04 21:54 34.15283 -117.19812 13621 ft 314 kts 250°
2026-05-04 21:55 34.14587 -117.22327 12891 ft 317 kts 250°
2026-05-04 21:55 34.13887 -117.24855 12332 ft 316 kts 251°
2026-05-04 21:55 34.13196 -117.27359 12041 ft 314 kts 251°
2026-05-04 21:55 34.12507 -117.29858 11981 ft 314 kts 251°
2026-05-04 21:56 34.11817 -117.32356 11983 ft 314 kts 251°
2026-05-04 21:56 34.11127 -117.34854 11981 ft 314 kts 251°
2026-05-04 21:56 34.10439 -117.37348 11978 ft 313 kts 251°
2026-05-04 21:56 34.09785 -117.39864 11975 ft 314 kts 253°
2026-05-04 21:57 34.09165 -117.42385 11962 ft 314 kts 253°
2026-05-04 21:57 34.08551 -117.44875 11968 ft 313 kts 253°
2026-05-04 21:57 34.07920 -117.47417 11974 ft 309 kts 253°
2026-05-04 21:57 34.07338 -117.49875 11972 ft 302 kts 256°
2026-05-04 21:58 34.06924 -117.52110 11661 ft 300 kts 257°
2026-05-04 21:58 34.06507 -117.54600 11216 ft 296 kts 258°
2026-05-04 21:58 34.06103 -117.57029 10702 ft 294 kts 258°
2026-05-04 21:58 34.05701 -117.59422 10381 ft 287 kts 258°
2026-05-04 21:59 34.05312 -117.61732 10208 ft 275 kts 258°
2026-05-04 21:59 34.04937 -117.63955 10030 ft 267 kts 259°
2026-05-04 21:59 34.04566 -117.66144 9981 ft 266 kts 259°
2026-05-04 21:59 34.04196 -117.68331 9980 ft 267 kts 259°
2026-05-04 22:00 34.03829 -117.70491 9978 ft 267 kts 259°
2026-05-04 22:00 34.03456 -117.72685 9963 ft 268 kts 259°
2026-05-04 22:00 34.03083 -117.74878 9972 ft 266 kts 259°
2026-05-04 22:00 34.02713 -117.77051 9774 ft 261 kts 259°
2026-05-04 22:01 34.02349 -117.79184 9286 ft 261 kts 259°
2026-05-04 22:01 34.01981 -117.81337 8762 ft 263 kts 259°
2026-05-04 22:01 34.01613 -117.83494 8291 ft 262 kts 259°
2026-05-04 22:01 34.01247 -117.85632 8014 ft 260 kts 259°
2026-05-04 22:02 34.00882 -117.87764 7964 ft 260 kts 259°
2026-05-04 22:02 34.00518 -117.89889 7840 ft 255 kts 259°
2026-05-04 22:02 34.00161 -117.91968 7398 ft 255 kts 259°
2026-05-04 22:02 33.99800 -117.94072 6872 ft 257 kts 258°
2026-05-04 22:03 33.99438 -117.96177 6353 ft 260 kts 259°
2026-05-04 22:03 33.99072 -117.98301 5974 ft 256 kts 258°
2026-05-04 22:03 33.98713 -118.00388 5546 ft 253 kts 259°
2026-05-04 22:03 33.98362 -118.02434 5199 ft 248 kts 258°
2026-05-04 22:04 33.98011 -118.04462 4763 ft 247 kts 258°
2026-05-04 22:04 33.97659 -118.06487 4339 ft 246 kts 258°
2026-05-04 22:04 33.97307 -118.08519 3805 ft 249 kts 258°
2026-05-04 22:04 33.96959 -118.10530 3559 ft 241 kts 258°
2026-05-04 22:05 33.96625 -118.12449 3405 ft 229 kts 258°
2026-05-04 22:05 33.96309 -118.14277 3266 ft 216 kts 257°
2026-05-04 22:05 33.96010 -118.16001 3151 ft 206 kts 258°
2026-05-04 22:05 33.95762 -118.17661 3007 ft 196 kts 262°
2026-05-04 22:06 33.95622 -118.19234 2984 ft 181 kts 262°
2026-05-04 22:06 33.95525 -118.20601 2986 ft 163 kts 263°
2026-05-04 22:06 33.95395 -118.21870 2899 ft 142 kts 261°
2026-05-04 22:06 33.95277 -118.23011 2666 ft 134 kts 262°
2026-05-04 22:07 33.95171 -118.24116 2487 ft 133 kts 261°
2026-05-04 22:07 33.95060 -118.25228 2300 ft 133 kts 262°
2026-05-04 22:07 33.94950 -118.26326 2122 ft 131 kts 261°
2026-05-04 22:07 33.94839 -118.27420 1951 ft 133 kts 262°
2026-05-04 22:08 33.94728 -118.28526 1772 ft 133 kts 261°
2026-05-04 22:08 33.94618 -118.29606 1583 ft 126 kts 261°
2026-05-04 22:08 33.94516 -118.30606 1404 ft 115 kts 260°
2026-05-04 22:08 33.94422 -118.31541 1284 ft 110 kts 262°
2026-05-04 22:09 33.94333 -118.32432 1132 ft 104 kts 261°
2026-05-04 22:09 33.94244 -118.33300 987 ft 105 kts 260°
2026-05-04 22:09 33.94152 -118.34172 815 ft 107 kts 261°
2026-05-04 22:09 33.94068 -118.35033 1083 ft 122 kts 264°
2026-05-04 22:10 33.93971 -118.36030 1692 ft 156 kts 260°
2026-05-04 22:10 33.93829 -118.37372 2162 ft 160 kts 261°
2026-05-04 22:10 33.93700 -118.38639 2680 ft 160 kts 262°
2026-05-04 22:10 33.93550 -118.40049 3042 ft 178 kts 260°
2026-05-04 22:11 33.93363 -118.41632 3391 ft 198 kts 261°
2026-05-04 22:11 33.93164 -118.43329 3839 ft 216 kts 261°
2026-05-04 22:11 33.92751 -118.45163 4220 ft 237 kts 249°
2026-05-04 22:11 33.91872 -118.46894 4738 ft 251 kts 226°
2026-05-04 22:12 33.90390 -118.48044 4957 ft 258 kts 206°
2026-05-04 22:12 33.88629 -118.48522 4990 ft 265 kts 182°
2026-05-04 22:12 33.86812 -118.48075 4990 ft 270 kts 163°
2026-05-04 22:12 33.85051 -118.47282 4977 ft 271 kts 161°
2026-05-04 22:13 33.83312 -118.46406 4972 ft 273 kts 159°
2026-05-04 22:13 33.81813 -118.44979 4983 ft 281 kts 131°
2026-05-04 22:13 33.80878 -118.42918 4959 ft 280 kts 113°
2026-05-04 22:13 33.80595 -118.40656 4741 ft 272 kts 88°
2026-05-04 22:14 33.80743 -118.38377 4185 ft 277 kts 85°
2026-05-04 22:14 33.81124 -118.36104 3649 ft 279 kts 75°
2026-05-04 22:14 33.81627 -118.33838 3180 ft 281 kts 73°
2026-05-04 22:14 33.82229 -118.31624 2995 ft 277 kts 71°
2026-05-04 22:15 33.82849 -118.29427 2980 ft 279 kts 71°
2026-05-04 22:15 33.83475 -118.27210 2981 ft 280 kts 71°
2026-05-04 22:15 33.84099 -118.24998 2977 ft 279 kts 71°
2026-05-04 22:15 33.84736 -118.22745 2979 ft 280 kts 71°
2026-05-04 22:16 33.85355 -118.20557 2983 ft 280 kts 72°
2026-05-04 22:16 33.85997 -118.18318 2967 ft 279 kts 71°
2026-05-04 22:16 33.86807 -118.16198 2972 ft 280 kts 57°
2026-05-04 22:16 33.88151 -118.14538 2972 ft 276 kts 29°
2026-05-04 22:17 33.89905 -118.13861 2979 ft 256 kts 358°
2026-05-04 22:17 33.91564 -118.14174 2986 ft 231 kts 339°
2026-05-04 22:17 33.93072 -118.14717 2982 ft 212 kts 334°
2026-05-04 22:17 33.94354 -118.15389 2976 ft 192 kts 323°
2026-05-04 22:18 33.95311 -118.16384 2975 ft 175 kts 303°
2026-05-04 22:18 33.95720 -118.17679 2985 ft 157 kts 271°
2026-05-04 22:18 33.95669 -118.18887 3011 ft 134 kts 261°
2026-05-04 22:18 33.95572 -118.19977 3008 ft 132 kts 264°
2026-05-04 22:19 33.95481 -118.21065 2976 ft 128 kts 262°
2026-05-04 22:19 33.95379 -118.22107 2816 ft 123 kts 262°
2026-05-04 22:19 33.95278 -118.23116 2642 ft 122 kts 261°
2026-05-04 22:19 33.95179 -118.24097 2483 ft 114 kts 261°
2026-05-04 22:20 33.95084 -118.25035 2328 ft 112 kts 260°
2026-05-04 22:20 33.94989 -118.25961 2185 ft 112 kts 261°
2026-05-04 22:20 33.94895 -118.26891 2033 ft 111 kts 261°
2026-05-04 22:20 33.94801 -118.27814 1889 ft 111 kts 261°
2026-05-04 22:21 33.94707 -118.28744 1728 ft 112 kts 260°
2026-05-04 22:21 33.94642 -118.29376 1631 ft 113 kts 260°
2026-05-04 22:21 33.94545 -118.30319 1484 ft 115 kts 262°
2026-05-04 22:21 33.94449 -118.31269 1319 ft 114 kts 261°
2026-05-04 22:22 33.94351 -118.32235 1170 ft 115 kts 263°
2026-05-04 22:22 33.94259 -118.33160 1015 ft 107 kts 261°
2026-05-04 22:22 33.94168 -118.34038 856 ft 105 kts 260°
2026-05-04 22:22 33.94076 -118.34924 715 ft 110 kts 265°
2026-05-04 22:23 33.93979 -118.35889 551 ft 119 kts 265°
2026-05-04 22:23 33.93878 -118.36875 399 ft 117 kts 264°
2026-05-04 22:23 33.93787 -118.37824 237 ft 111 kts 261°
2026-05-04 22:23 33.93694 -118.38692 153 ft 108 kts 263°
2026-05-04 22:24 33.93612 -118.39469 125 ft 69 kts 262°
2026-05-04 22:24 33.93597 -118.39732 125 ft 10 kts 282°
2026-05-04 22:24 33.93645 -118.39901 124 ft 30 kts 289°
2026-05-04 22:24 33.93663 -118.39995 123 ft 17 kts 276°
2026-05-04 22:25 33.93649 -118.40200 123 ft 14 kts 266°
2026-05-04 22:25 33.93650 -118.40308 128 ft 17 kts 281°
2026-05-04 22:25 33.93747 -118.40422 129 ft 22 kts 349°
2026-05-04 22:25 33.93841 -118.40322 130 ft 21 kts 82°
2026-05-04 22:26 33.93865 -118.40132 125 ft 25 kts 82°
2026-05-04 22:26 33.93890 -118.40051 123 ft 2 kts 19°
2026-05-04 22:26 33.93942 -118.40055 130 ft 16 kts 354°
2026-05-04 22:26 33.94084 -118.40074 126 ft 13 kts 354°
2026-05-04 22:27 33.94135 -118.40115 121 ft 12 kts 289°
2026-05-04 22:27 33.94139 -118.40135 125 ft 0 kts 280°